Fort Leonard Wood, MO

4:56 PM CDT on April 27, 2017 (GMT -0500)
Waynesville Regional At Forney Field

Weather History for KTBN - September, 2013

Change the Weather History Date:

Wednesday, September 25, 2013

  Actual Average Record
Temperature  
Mean Temperature 66 °F -  
Max Temperature 77 °F 74 °F 89 °F (2012)
Min Temperature 55 °F 54 °F 39 °F (2001)
Growing Degree Days 16 (Base 50)    
Moisture  
Dew Point 61 °F    
Average Humidity 84    
Maximum Humidity 100    
Minimum Humidity 60    
Precipitation  
Precipitation 0.00 in - - ()
Sea Level Pressure  
Sea Level Pressure 29.86 in    
Wind  
Wind Speed 3 mph (NNE)    
Max Wind Speed 6 mph    
Max Gust Speed -    
Visibility 10 miles    
Events      
Averages and records for this station are not official NWS values.
T = Trace of Precipitation, MM = Missing Value Source: NWS Daily Summary

Daily Weather History Graph

Daily Weather History Graph

Search for Another Location

Airport or City:

Trip Planner

Search our weather history database for the weather conditions in past years. The results will help you decide how hot, cold, wet, or windy it might be!

Date:

Astronomy

Sep. 25, 2013 Rise Set
Actual Time 6:59 AM CDT 7:00 PM CDT
Civil Twilight 6:32 AM CDT 7:26 PM CDT
Nautical Twilight 6:02 AM CDT 7:57 PM CDT
Astronomical Twilight 5:31 AM CDT 8:27 PM CDT
Moon 11:12 PM CDT (9/25) 12:59 PM CDT (9/25)
Length of Visible Light 12h 53m
Length of Day
12h 01m
Waning Gibbous, 64% of the Moon is Illuminated
Sep 25
Waning Gibbous
Sep 26
Last Quarter
Oct 4
New
Oct 11
First Quarter
Oct 18
Full

Hourly Weather History & Observations

Time (CDT) Temp. Dew Point Humidity Pressure Visibility Wind Dir Wind Speed Gust Speed Precip Events Conditions
12:58 AM 62.2 °F 59.5 °F 91% 29.82 in 10.0 mi NNE 2.3 mph - N/A   Overcast
1:58 AM 58.3 °F 58.1 °F 99% 29.82 in 10.0 mi WSW 1.2 mph - N/A   Mostly Cloudy
2:58 AM 57.2 °F 57.2 °F 100% 29.82 in 10.0 mi SSW 1.2 mph - N/A   Clear
3:58 AM 55.6 °F 55.6 °F 100% 29.81 in 10.0 mi SW 3.5 mph - N/A   Clear
4:58 AM 55.0 °F 55.0 °F 100% 29.83 in 10.0 mi WNW 3.5 mph - N/A   Partly Cloudy
5:58 AM 57.6 °F 57.6 °F 100% 29.83 in 10.0 mi West 3.5 mph - N/A   Clear
6:58 AM 55.0 °F 55.0 °F 100% 29.85 in 10.0 mi WNW 3.5 mph - N/A   Clear
9:58 AM 66.9 °F 61.0 °F 81% 29.88 in 10.0 mi Variable 4.6 mph - N/A   Clear
10:58 AM 70.5 °F 61.3 °F 73% 29.89 in 10.0 mi North 5.8 mph - N/A   Clear
11:58 AM 73.4 °F 62.1 °F 68% 29.88 in 10.0 mi North 5.8 mph - N/A   Clear
12:58 PM 75.9 °F 63.1 °F 64% 29.87 in 10.0 mi NE 3.5 mph - N/A   Partly Cloudy
1:58 PM 75.0 °F 63.3 °F 67% 29.86 in 10.0 mi NE 5.8 mph - N/A   Mostly Cloudy
2:58 PM 74.7 °F 63.0 °F 67% 29.85 in 10.0 mi East 3.5 mph - N/A   Mostly Cloudy
3:58 PM 75.2 °F 62.2 °F 64% 29.86 in 10.0 mi Calm Calm - N/A   Mostly Cloudy
4:58 PM 76.6 °F 61.9 °F 60% 29.85 in 10.0 mi Variable 1.2 mph - N/A   Scattered Clouds
5:58 PM 74.3 °F 64.0 °F 70% 29.86 in 10.0 mi NNE 3.5 mph - N/A   Clear
6:58 PM 71.2 °F 64.6 °F 79% 29.86 in 10.0 mi NNE 1.2 mph - N/A   Clear
7:58 PM 66.6 °F 64.4 °F 93% 29.87 in 9.0 mi Calm Calm - N/A   Clear
8:58 PM 68.7 °F 64.4 °F 86% 29.87 in 10.0 mi East 3.5 mph - N/A   Clear
9:58 PM 67.3 °F 64.2 °F 90% 29.88 in 10.0 mi East 3.5 mph - N/A   Clear
10:58 PM 63.1 °F 63.1 °F 100% 29.89 in 10.0 mi SE 2.3 mph - N/A   Clear
11:58 PM 63.1 °F 63.1 °F 100% 29.88 in 10.0 mi SE 4.6 mph - N/A   Clear